contact:dominique.lefevre@mio.osupytheas.fr, maurice.libes@osupytheas.fr, didier.mallarino@osupytheas.fr
Project:EMSO http://www.emso-fr.org/EMSO-France
Depth: 2436.0 m
Title:EMSO Ligure Ouest : Data MII capteur MICROCAT
DateTime_Computer,Latitude,Longitude,Temperature,Conductivity,Pressure,DateTime_Instrument
DateTime_Computer,Latitude,Longitude,degC,S m-1,dbar,DateTime_Instrument
2021-04-15T00:02:27Z,42.805,6.029,13.2992,4.59994,2469.526,2021-4-15T02:03:36Z
2021-04-15T00:05:30Z,42.805,6.029,13.3000,4.60007,2469.54,2021-4-15T02:06:39Z
2021-04-15T00:08:33Z,42.805,6.029,13.2996,4.60002,2469.503,2021-4-15T02:09:42Z
2021-04-15T00:11:37Z,42.805,6.029,13.2996,4.60001,2469.526,2021-4-15T02:12:45Z
2021-04-15T00:14:40Z,42.805,6.029,13.2991,4.60000,2469.526,2021-4-15T02:15:48Z
2021-04-15T00:17:43Z,42.805,6.029,13.2998,4.60006,2469.503,2021-4-15T02:18:51Z
2021-04-15T00:20:46Z,42.805,6.029,13.2996,4.60005,2469.503,2021-4-15T02:21:55Z
2021-04-15T00:23:49Z,42.805,6.029,13.2998,4.60003,2469.517,2021-4-15T02:24:58Z
2021-04-15T00:26:52Z,42.805,6.029,13.2989,4.59998,2469.526,2021-4-15T02:28:01Z
2021-04-15T00:29:55Z,42.805,6.029,13.3002,4.59999,2469.503,2021-4-15T02:31:04Z
2021-04-15T00:32:58Z,42.805,6.029,13.2995,4.60009,2469.503,2021-4-15T02:34:07Z
2021-04-15T00:36:02Z,42.805,6.029,13.2996,4.59999,2469.517,2021-4-15T02:37:10Z
2021-04-15T00:39:05Z,42.805,6.029,13.2992,4.60011,2469.517,2021-4-15T02:40:13Z
2021-04-15T00:42:08Z,42.805,6.029,13.2995,4.60005,2469.503,2021-4-15T02:43:16Z
2021-04-15T00:45:11Z,42.805,6.029,13.2996,4.60002,2469.48,2021-4-15T02:46:19Z
2021-04-15T00:48:14Z,42.805,6.029,13.2995,4.60002,2469.503,2021-4-15T02:49:23Z
2021-04-15T00:51:17Z,42.805,6.029,13.2994,4.59996,2469.526,2021-4-15T02:52:26Z
2021-04-15T00:54:20Z,42.805,6.029,13.2996,4.60016,2469.536,2021-4-15T02:55:29Z
2021-04-15T00:57:23Z,42.805,6.029,13.2988,4.60003,2469.526,2021-4-15T02:58:32Z
2021-04-15T01:00:27Z,42.805,6.029,13.3000,4.60000,2469.526,2021-4-15T03:01:35Z
2021-04-15T01:03:30Z,42.805,6.029,13.2991,4.60000,2469.513,2021-4-15T03:04:38Z
2021-04-15T01:06:33Z,42.805,6.029,13.2991,4.60002,2469.536,2021-4-15T03:07:41Z
2021-04-15T01:09:36Z,42.805,6.029,13.3000,4.60003,2469.526,2021-4-15T03:10:44Z
2021-04-15T01:12:39Z,42.805,6.029,13.2996,4.60002,2469.526,2021-4-15T03:13:48Z
2021-04-15T01:15:42Z,42.805,6.029,13.2995,4.59994,2469.513,2021-4-15T03:16:51Z
2021-04-15T01:18:45Z,42.805,6.029,13.2991,4.59996,2469.526,2021-4-15T03:19:54Z
2021-04-15T01:21:48Z,42.805,6.029,13.2993,4.60000,2469.55,2021-4-15T03:22:57Z
2021-04-15T01:24:52Z,42.805,6.029,13.2988,4.59992,2469.503,2021-4-15T03:26:00Z
2021-04-15T01:27:55Z,42.805,6.029,13.2993,4.60004,2469.55,2021-4-15T03:29:03Z
2021-04-15T01:30:58Z,42.805,6.029,13.2993,4.60006,2469.54,2021-4-15T03:32:06Z
2021-04-15T01:34:01Z,42.805,6.029,13.2997,4.60009,2469.55,2021-4-15T03:35:09Z
2021-04-15T01:37:04Z,42.805,6.029,13.2988,4.59993,2469.55,2021-4-15T03:38:13Z
2021-04-15T01:40:07Z,42.805,6.029,13.2991,4.59997,2469.55,2021-4-15T03:41:16Z
2021-04-15T01:43:10Z,42.805,6.029,13.2991,4.59994,2469.54,2021-4-15T03:44:19Z
2021-04-15T01:46:13Z,42.805,6.029,13.2991,4.59998,2469.573,2021-4-15T03:47:22Z
2021-04-15T01:49:16Z,42.805,6.029,13.2987,4.59992,2469.55,2021-4-15T03:50:25Z
2021-04-15T01:52:20Z,42.805,6.029,13.2996,4.60002,2469.55,2021-4-15T03:53:28Z
2021-04-15T01:55:23Z,42.805,6.029,13.2994,4.59999,2469.563,2021-4-15T03:56:31Z
2021-04-15T01:58:26Z,42.805,6.029,13.2993,4.60011,2469.563,2021-4-15T03:59:34Z
2021-04-15T02:01:29Z,42.805,6.029,13.2986,4.59990,2469.597,2021-4-15T04:02:38Z
2021-04-15T02:04:32Z,42.805,6.029,13.2985,4.59989,2469.54,2021-4-15T04:05:41Z
2021-04-15T02:07:35Z,42.805,6.029,13.2992,4.59995,2469.573,2021-4-15T04:08:44Z
2021-04-15T02:10:38Z,42.805,6.029,13.2991,4.59999,2469.61,2021-4-15T04:11:47Z
2021-04-15T02:13:41Z,42.805,6.029,13.2995,4.59999,2469.563,2021-4-15T04:14:50Z
2021-04-15T02:16:45Z,42.805,6.029,13.2998,4.59994,2469.597,2021-4-15T04:17:53Z
2021-04-15T02:19:48Z,42.805,6.029,13.2993,4.60002,2469.634,2021-4-15T04:20:56Z
2021-04-15T02:22:51Z,42.805,6.029,13.2991,4.60005,2469.597,2021-4-15T04:23:59Z
2021-04-15T02:25:54Z,42.805,6.029,13.2995,4.60006,2469.597,2021-4-15T04:27:03Z
2021-04-15T02:28:57Z,42.805,6.029,13.2988,4.60003,2469.643,2021-4-15T04:30:06Z
2021-04-15T02:32:00Z,42.805,6.029,13.2991,4.60011,2469.597,2021-4-15T04:33:09Z
2021-04-15T02:35:03Z,42.805,6.029,13.2998,4.59997,2469.643,2021-4-15T04:36:12Z
2021-04-15T02:38:06Z,42.805,6.029,13.2993,4.59997,2469.643,2021-4-15T04:39:15Z
2021-04-15T02:41:10Z,42.805,6.029,13.2997,4.60002,2469.634,2021-4-15T04:42:18Z
2021-04-15T02:44:13Z,42.805,6.029,13.2992,4.59999,2469.643,2021-4-15T04:45:21Z
2021-04-15T02:47:16Z,42.805,6.029,13.2994,4.60009,2469.643,2021-4-15T04:48:24Z
2021-04-15T02:50:19Z,42.805,6.029,13.2994,4.60007,2469.62,2021-4-15T04:51:28Z
2021-04-15T02:53:22Z,42.805,6.029,13.2993,4.59995,2469.657,2021-4-15T04:54:31Z
2021-04-15T02:56:25Z,42.805,6.029,13.2991,4.59997,2469.643,2021-4-15T04:57:34Z
2021-04-15T02:59:28Z,42.805,6.029,13.2991,4.59995,2469.667,2021-4-15T05:00:37Z
2021-04-15T03:02:31Z,42.805,6.029,13.2994,4.60005,2469.68,2021-4-15T05:03:40Z
2021-04-15T03:05:35Z,42.805,6.029,13.2993,4.59999,2469.667,2021-4-15T05:06:43Z
2021-04-15T03:08:38Z,42.805,6.029,13.2995,4.60003,2469.69,2021-4-15T05:09:46Z
2021-04-15T03:11:41Z,42.805,6.029,13.2989,4.60003,2469.69,2021-4-15T05:12:49Z
2021-04-15T03:14:44Z,42.805,6.029,13.2994,4.60000,2469.75,2021-4-15T05:15:53Z
2021-04-15T03:17:47Z,42.805,6.029,13.2992,4.59996,2469.727,2021-4-15T05:18:56Z
2021-04-15T03:20:50Z,42.805,6.029,13.2987,4.59993,2469.737,2021-4-15T05:21:59Z
2021-04-15T03:23:53Z,42.805,6.029,13.2984,4.59998,2469.737,2021-4-15T05:25:02Z
2021-04-15T03:26:56Z,42.805,6.029,13.2990,4.59995,2469.76,2021-4-15T05:28:05Z
2021-04-15T03:30:00Z,42.805,6.029,13.2984,4.59989,2469.773,2021-4-15T05:31:08Z
2021-04-15T03:33:03Z,42.805,6.029,13.2990,4.60005,2469.76,2021-4-15T05:34:11Z
2021-04-15T03:36:06Z,42.805,6.029,13.2995,4.59999,2469.806,2021-4-15T05:37:14Z
2021-04-15T03:39:09Z,42.805,6.029,13.2990,4.59998,2469.821,2021-4-15T05:40:18Z
2021-04-15T03:42:12Z,42.805,6.029,13.2990,4.59995,2469.83,2021-4-15T05:43:21Z
2021-04-15T03:45:15Z,42.805,6.029,13.2991,4.59994,2469.844,2021-4-15T05:46:24Z
2021-04-15T03:48:18Z,42.805,6.029,13.2990,4.59995,2469.89,2021-4-15T05:49:27Z
2021-04-15T03:51:21Z,42.805,6.029,13.2990,4.59996,2469.9,2021-4-15T05:52:30Z
2021-04-15T03:54:25Z,42.805,6.029,13.2993,4.60009,2469.914,2021-4-15T05:55:33Z
2021-04-15T03:57:28Z,42.805,6.029,13.2988,4.59994,2469.914,2021-4-15T05:58:36Z
2021-04-15T04:00:31Z,42.805,6.029,13.2989,4.59996,2469.9,2021-4-15T06:01:39Z
2021-04-15T04:03:34Z,42.805,6.029,13.2997,4.59996,2469.97,2021-4-15T06:04:42Z
2021-04-15T04:06:37Z,42.805,6.029,13.2992,4.59997,2469.937,2021-4-15T06:07:46Z
2021-04-15T04:09:40Z,42.805,6.029,13.2990,4.59994,2469.984,2021-4-15T06:10:49Z
2021-04-15T04:12:43Z,42.805,6.029,13.2990,4.59998,2469.993,2021-4-15T06:13:52Z
2021-04-15T04:15:46Z,42.805,6.029,13.2988,4.59989,2470.017,2021-4-15T06:16:55Z
2021-04-15T04:18:49Z,42.805,6.029,13.2993,4.59993,2470.04,2021-4-15T06:19:58Z
2021-04-15T04:21:53Z,42.805,6.029,13.2991,4.60009,2470.053,2021-4-15T06:23:01Z
2021-04-15T04:24:56Z,42.805,6.029,13.2983,4.59989,2470.063,2021-4-15T06:26:04Z
2021-04-15T04:27:59Z,42.805,6.029,13.2990,4.60000,2470.063,2021-4-15T06:29:07Z
2021-04-15T04:31:02Z,42.805,6.029,13.2988,4.59999,2470.1,2021-4-15T06:32:11Z
2021-04-15T04:34:05Z,42.805,6.029,13.2990,4.60003,2470.133,2021-4-15T06:35:14Z
2021-04-15T04:37:08Z,42.805,6.029,13.2988,4.59989,2470.133,2021-4-15T06:38:17Z
2021-04-15T04:40:11Z,42.805,6.029,13.2990,4.59997,2470.124,2021-4-15T06:41:20Z
2021-04-15T04:43:14Z,42.805,6.029,13.2990,4.59997,2470.171,2021-4-15T06:44:23Z
2021-04-15T04:46:18Z,42.805,6.029,13.2997,4.60003,2470.203,2021-4-15T06:47:26Z
2021-04-15T04:49:21Z,42.805,6.029,13.2996,4.59999,2470.18,2021-4-15T06:50:29Z
2021-04-15T04:52:24Z,42.805,6.029,13.2990,4.59999,2470.24,2021-4-15T06:53:32Z
2021-04-15T04:55:27Z,42.805,6.029,13.2985,4.59998,2470.25,2021-4-15T06:56:36Z
2021-04-15T04:58:30Z,42.805,6.029,13.2989,4.60000,2470.287,2021-4-15T06:59:39Z
2021-04-15T05:01:33Z,42.805,6.029,13.2986,4.59994,2470.25,2021-4-15T07:02:42Z
2021-04-15T05:04:36Z,42.805,6.029,13.2990,4.59997,2470.334,2021-4-15T07:05:45Z
2021-04-15T05:07:39Z,42.805,6.029,13.2986,4.59994,2470.32,2021-4-15T07:08:48Z
2021-04-15T05:10:43Z,42.805,6.029,13.2988,4.60010,2470.32,2021-4-15T07:11:51Z
2021-04-15T05:13:46Z,42.805,6.029,13.2995,4.60001,2470.273,2021-4-15T07:14:54Z
2021-04-15T05:16:49Z,42.805,6.029,13.2991,4.59998,2470.39,2021-4-15T07:17:57Z
2021-04-15T05:19:52Z,42.805,6.029,13.2989,4.59991,2470.343,2021-4-15T07:21:01Z
2021-04-15T05:22:55Z,42.805,6.029,13.2987,4.59996,2470.413,2021-4-15T07:24:04Z
2021-04-15T05:25:58Z,42.805,6.029,13.2991,4.60005,2470.343,2021-4-15T07:27:07Z
2021-04-15T05:29:01Z,42.805,6.029,13.2987,4.59994,2470.376,2021-4-15T07:30:10Z
2021-04-15T05:32:04Z,42.805,6.029,13.2985,4.59988,2470.427,2021-4-15T07:33:13Z
2021-04-15T05:35:08Z,42.805,6.029,13.2988,4.59993,2470.413,2021-4-15T07:36:16Z
2021-04-15T05:38:11Z,42.805,6.029,13.2988,4.59999,2470.413,2021-4-15T07:39:19Z
2021-04-15T05:41:14Z,42.805,6.029,13.2990,4.59996,2470.497,2021-4-15T07:42:22Z
2021-04-15T05:44:17Z,42.805,6.029,13.2989,4.60000,2470.483,2021-4-15T07:45:25Z
2021-04-15T05:47:20Z,42.805,6.029,13.2988,4.60006,2470.427,2021-4-15T07:48:29Z
2021-04-15T05:50:23Z,42.805,6.029,13.2990,4.60005,2470.497,2021-4-15T07:51:32Z
2021-04-15T05:53:26Z,42.805,6.029,13.2996,4.59999,2470.413,2021-4-15T07:54:35Z
2021-04-15T05:56:29Z,42.805,6.029,13.2990,4.60002,2470.591,2021-4-15T07:57:38Z
2021-04-15T05:59:33Z,42.805,6.029,13.2989,4.59997,2470.52,2021-4-15T08:00:41Z
2021-04-15T06:02:36Z,42.805,6.029,13.2991,4.59999,2470.483,2021-4-15T08:03:44Z
2021-04-15T06:05:39Z,42.805,6.029,13.2993,4.60003,2470.52,2021-4-15T08:06:47Z
2021-04-15T06:08:42Z,42.805,6.029,13.2996,4.59999,2470.483,2021-4-15T08:09:50Z
2021-04-15T06:11:45Z,42.805,6.029,13.2998,4.60001,2470.53,2021-4-15T08:12:54Z
2021-04-15T06:14:48Z,42.805,6.029,13.2992,4.60003,2470.497,2021-4-15T08:15:57Z
2021-04-15T06:17:51Z,42.805,6.029,13.2990,4.59997,2470.507,2021-4-15T08:19:00Z
2021-04-15T06:20:54Z,42.805,6.029,13.2989,4.60000,2470.53,2021-4-15T08:22:03Z
2021-04-15T06:23:58Z,42.805,6.029,13.2987,4.59991,2470.507,2021-4-15T08:25:06Z
2021-04-15T06:27:01Z,42.805,6.029,13.2995,4.59998,2470.507,2021-4-15T08:28:09Z
2021-04-15T06:30:04Z,42.805,6.029,13.2991,4.60004,2470.553,2021-4-15T08:31:12Z
2021-04-15T06:33:07Z,42.805,6.029,13.2993,4.59999,2470.567,2021-4-15T08:34:15Z
2021-04-15T06:36:10Z,42.805,6.029,13.2994,4.60004,2470.567,2021-4-15T08:37:19Z
2021-04-15T06:39:13Z,42.805,6.029,13.2992,4.59999,2470.497,2021-4-15T08:40:22Z
2021-04-15T06:42:16Z,42.805,6.029,13.2993,4.60008,2470.507,2021-4-15T08:43:25Z
2021-04-15T06:45:19Z,42.805,6.029,13.2991,4.60004,2470.577,2021-4-15T08:46:28Z
2021-04-15T06:48:22Z,42.805,6.029,13.2990,4.60003,2470.567,2021-4-15T08:49:31Z
2021-04-15T06:51:26Z,42.805,6.029,13.2997,4.60011,2470.483,2021-4-15T08:52:34Z
2021-04-15T06:54:29Z,42.805,6.029,13.2995,4.60009,2470.661,2021-4-15T08:55:37Z
2021-04-15T06:57:32Z,42.805,6.029,13.2993,4.59990,2470.577,2021-4-15T08:58:40Z
2021-04-15T07:00:35Z,42.805,6.029,13.2992,4.59996,2470.577,2021-4-15T09:01:44Z
2021-04-15T07:03:38Z,42.805,6.029,13.2989,4.60006,2470.577,2021-4-15T09:04:47Z
2021-04-15T07:06:41Z,42.805,6.029,13.2996,4.60002,2470.553,2021-4-15T09:07:50Z
2021-04-15T07:09:44Z,42.805,6.029,13.2989,4.59999,2470.567,2021-4-15T09:10:53Z
2021-04-15T07:12:47Z,42.805,6.029,13.2995,4.59999,2470.577,2021-4-15T09:13:56Z
2021-04-15T07:15:51Z,42.805,6.029,13.2997,4.59993,2470.6,2021-4-15T09:16:59Z
2021-04-15T07:18:54Z,42.805,6.029,13.2991,4.59996,2470.614,2021-4-15T09:20:02Z
2021-04-15T07:21:57Z,42.805,6.029,13.2987,4.59997,2470.624,2021-4-15T09:23:05Z
2021-04-15T07:25:00Z,42.805,6.029,13.2993,4.59994,2470.624,2021-4-15T09:26:09Z
2021-04-15T07:28:03Z,42.805,6.029,13.2986,4.59997,2470.6,2021-4-15T09:29:12Z
2021-04-15T07:31:06Z,42.805,6.029,13.2990,4.59996,2470.6,2021-4-15T09:32:15Z
2021-04-15T07:34:09Z,42.805,6.029,13.2993,4.59996,2470.624,2021-4-15T09:35:18Z
2021-04-15T07:37:12Z,42.805,6.029,13.2991,4.59993,2470.614,2021-4-15T09:38:21Z
2021-04-15T07:40:16Z,42.805,6.029,13.2985,4.60003,2470.577,2021-4-15T09:41:24Z
2021-04-15T07:43:19Z,42.805,6.029,13.2990,4.59998,2470.6,2021-4-15T09:44:27Z
2021-04-15T07:46:22Z,42.805,6.029,13.2994,4.59998,2470.577,2021-4-15T09:47:30Z
2021-04-15T07:49:25Z,42.805,6.029,13.3000,4.60006,2470.6,2021-4-15T09:50:34Z
2021-04-15T07:52:28Z,42.805,6.029,13.2994,4.60000,2470.614,2021-4-15T09:53:37Z
2021-04-15T07:55:31Z,42.805,6.029,13.2996,4.60000,2470.6,2021-4-15T09:56:40Z
2021-04-15T07:58:34Z,42.805,6.029,13.2986,4.59988,2470.577,2021-4-15T09:59:43Z
2021-04-15T08:01:37Z,42.805,6.029,13.2996,4.60010,2470.577,2021-4-15T10:02:46Z
2021-04-15T08:04:41Z,42.805,6.029,13.2990,4.59994,2470.614,2021-4-15T10:05:49Z
2021-04-15T08:07:44Z,42.805,6.029,13.2987,4.60001,2470.6,2021-4-15T10:08:52Z
2021-04-15T08:10:47Z,42.805,6.029,13.2989,4.59997,2470.637,2021-4-15T10:11:55Z
2021-04-15T08:13:50Z,42.805,6.029,13.2992,4.60004,2470.624,2021-4-15T10:14:59Z
2021-04-15T08:16:53Z,42.805,6.029,13.2987,4.59995,2470.624,2021-4-15T10:18:02Z
2021-04-15T08:19:56Z,42.805,6.029,13.2994,4.59999,2470.6,2021-4-15T10:21:05Z
2021-04-15T08:22:59Z,42.805,6.029,13.2991,4.59996,2470.637,2021-4-15T10:24:08Z
2021-04-15T08:26:02Z,42.805,6.029,13.2994,4.59996,2470.646,2021-4-15T10:27:11Z
2021-04-15T08:29:06Z,42.805,6.029,13.2992,4.60001,2470.661,2021-4-15T10:30:14Z
2021-04-15T08:32:09Z,42.805,6.029,13.2990,4.59994,2470.661,2021-4-15T10:33:17Z
2021-04-15T08:35:12Z,42.805,6.029,13.2994,4.59995,2470.661,2021-4-15T10:36:20Z
2021-04-15T08:38:15Z,42.805,6.029,13.2990,4.59994,2470.693,2021-4-15T10:39:24Z
2021-04-15T08:41:18Z,42.805,6.029,13.2990,4.60002,2470.684,2021-4-15T10:42:27Z
2021-04-15T08:44:21Z,42.805,6.029,13.2988,4.59990,2470.754,2021-4-15T10:45:30Z
2021-04-15T08:47:24Z,42.805,6.029,13.2985,4.59994,2470.73,2021-4-15T10:48:33Z
2021-04-15T08:50:27Z,42.805,6.029,13.2995,4.60003,2470.74,2021-4-15T10:51:36Z
2021-04-15T08:53:31Z,42.805,6.029,13.2992,4.59991,2470.67,2021-4-15T10:54:39Z
2021-04-15T08:56:34Z,42.805,6.029,13.2997,4.60001,2470.67,2021-4-15T10:57:42Z
2021-04-15T08:59:37Z,42.805,6.029,13.2990,4.59998,2470.661,2021-4-15T11:00:45Z
2021-04-15T09:02:40Z,42.805,6.029,13.2992,4.60002,2470.684,2021-4-15T11:03:49Z
2021-04-15T09:05:43Z,42.805,6.029,13.2993,4.59997,2470.693,2021-4-15T11:06:52Z
2021-04-15T09:08:46Z,42.805,6.029,13.2996,4.59996,2470.717,2021-4-15T11:09:55Z
2021-04-15T09:11:49Z,42.805,6.029,13.2991,4.59999,2470.717,2021-4-15T11:12:58Z
2021-04-15T09:14:53Z,42.805,6.029,13.2991,4.60003,2470.754,2021-4-15T11:16:01Z
2021-04-15T09:17:56Z,42.805,6.029,13.2984,4.59989,2470.646,2021-4-15T11:19:04Z
2021-04-15T09:20:59Z,42.805,6.029,13.2985,4.59990,2470.661,2021-4-15T11:22:07Z
2021-04-15T09:24:02Z,42.805,6.029,13.2989,4.59994,2470.717,2021-4-15T11:25:10Z
2021-04-15T09:27:05Z,42.805,6.029,13.2994,4.60000,2470.684,2021-4-15T11:28:14Z
2021-04-15T09:30:08Z,42.805,6.029,13.2991,4.60000,2470.707,2021-4-15T11:31:17Z
2021-04-15T09:33:11Z,42.805,6.029,13.2990,4.59996,2470.707,2021-4-15T11:34:20Z
2021-04-15T09:36:14Z,42.805,6.029,13.2990,4.59997,2470.693,2021-4-15T11:37:23Z
2021-04-15T09:39:18Z,42.805,6.029,13.2990,4.60002,2470.684,2021-4-15T11:40:26Z
2021-04-15T09:42:21Z,42.805,6.029,13.2991,4.60011,2470.646,2021-4-15T11:43:29Z
2021-04-15T09:45:24Z,42.805,6.029,13.2991,4.60013,2470.684,2021-4-15T11:46:32Z
2021-04-15T09:48:27Z,42.805,6.029,13.2991,4.59998,2470.637,2021-4-15T11:49:36Z
2021-04-15T09:51:30Z,42.805,6.029,13.2991,4.59996,2470.6,2021-4-15T11:52:39Z
2021-04-15T09:54:33Z,42.805,6.029,13.2989,4.60002,2470.637,2021-4-15T11:55:42Z
2021-04-15T09:57:36Z,42.805,6.029,13.2989,4.60001,2470.646,2021-4-15T11:58:45Z
2021-04-15T10:00:39Z,42.805,6.029,13.2991,4.60001,2470.6,2021-4-15T12:01:48Z
2021-04-15T10:03:43Z,42.805,6.029,13.2988,4.60002,2470.591,2021-4-15T12:04:51Z
2021-04-15T10:06:46Z,42.805,6.029,13.2991,4.60006,2470.614,2021-4-15T12:07:54Z
2021-04-15T10:09:49Z,42.805,6.029,13.2993,4.60011,2470.646,2021-4-15T12:10:57Z
2021-04-15T10:12:52Z,42.805,6.029,13.2993,4.60009,2470.577,2021-4-15T12:14:01Z
2021-04-15T10:15:55Z,42.805,6.029,13.2994,4.60001,2470.586,2021-4-15T12:17:04Z
2021-04-15T10:18:58Z,42.805,6.029,13.2991,4.60005,2470.624,2021-4-15T12:20:07Z
2021-04-15T10:22:01Z,42.805,6.029,13.2993,4.59997,2470.684,2021-4-15T12:23:10Z
2021-04-15T10:25:04Z,42.805,6.029,13.2986,4.60009,2470.614,2021-4-15T12:26:13Z
2021-04-15T10:28:08Z,42.805,6.029,13.2988,4.60007,2470.577,2021-4-15T12:29:16Z
2021-04-15T10:31:11Z,42.805,6.029,13.2992,4.59996,2470.567,2021-4-15T12:32:19Z
2021-04-15T10:34:14Z,42.805,6.029,13.2991,4.60001,2470.661,2021-4-15T12:35:22Z
2021-04-15T10:37:17Z,42.805,6.029,13.2991,4.60000,2470.646,2021-4-15T12:38:26Z
2021-04-15T10:40:20Z,42.805,6.029,13.2986,4.59996,2470.577,2021-4-15T12:41:29Z
2021-04-15T10:43:23Z,42.805,6.029,13.2993,4.60003,2470.553,2021-4-15T12:44:32Z
2021-04-15T10:46:26Z,42.805,6.029,13.2993,4.60003,2470.507,2021-4-15T12:47:35Z
2021-04-15T10:49:29Z,42.805,6.029,13.2993,4.60002,2470.544,2021-4-15T12:50:38Z
2021-04-15T10:52:33Z,42.805,6.029,13.2988,4.60001,2470.483,2021-4-15T12:53:41Z
2021-04-15T10:55:36Z,42.805,6.029,13.2990,4.60006,2470.45,2021-4-15T12:56:44Z
2021-04-15T10:58:39Z,42.805,6.029,13.2996,4.60003,2470.497,2021-4-15T12:59:47Z
2021-04-15T11:01:42Z,42.805,6.029,13.2990,4.60003,2470.45,2021-4-15T13:02:51Z
2021-04-15T11:04:45Z,42.805,6.029,13.2990,4.59997,2470.483,2021-4-15T13:05:54Z
2021-04-15T11:07:48Z,42.805,6.029,13.2994,4.59995,2470.45,2021-4-15T13:08:57Z
2021-04-15T11:10:51Z,42.805,6.029,13.2990,4.59997,2470.483,2021-4-15T13:12:00Z
2021-04-15T11:13:54Z,42.805,6.029,13.2994,4.60003,2470.507,2021-4-15T13:15:03Z
2021-04-15T11:16:58Z,42.805,6.029,13.2988,4.60005,2470.483,2021-4-15T13:18:06Z
2021-04-15T11:20:01Z,42.805,6.029,13.2993,4.59999,2470.483,2021-4-15T13:21:09Z
2021-04-15T11:23:04Z,42.805,6.029,13.2987,4.60002,2470.544,2021-4-15T13:24:12Z
2021-04-15T11:26:07Z,42.805,6.029,13.2990,4.60001,2470.553,2021-4-15T13:27:16Z
2021-04-15T11:29:10Z,42.805,6.029,13.2984,4.59999,2470.53,2021-4-15T13:30:19Z
2021-04-15T11:32:13Z,42.805,6.029,13.2990,4.60009,2470.8,2021-4-15T13:33:22Z
2021-04-15T11:35:16Z,42.805,6.029,13.2994,4.60011,2470.726,2021-4-15T13:36:25Z
2021-04-15T11:38:19Z,42.805,6.029,13.2987,4.60016,2470.624,2021-4-15T13:39:28Z
2021-04-15T11:41:23Z,42.805,6.029,13.2984,4.60004,2470.553,2021-4-15T13:42:31Z
2021-04-15T11:44:26Z,42.805,6.029,13.2987,4.60006,2470.614,2021-4-15T13:45:34Z
2021-04-15T11:47:29Z,42.805,6.029,13.2993,4.59996,2470.577,2021-4-15T13:48:37Z
2021-04-15T11:50:32Z,42.805,6.029,13.2988,4.59996,2470.577,2021-4-15T13:51:41Z
2021-04-15T11:53:35Z,42.805,6.029,13.2991,4.59996,2470.624,2021-4-15T13:54:44Z
2021-04-15T11:56:38Z,42.805,6.029,13.2990,4.60002,2470.624,2021-4-15T13:57:47Z
2021-04-15T11:59:41Z,42.805,6.029,13.2991,4.60017,2470.6,2021-4-15T14:00:50Z
2021-04-15T12:02:44Z,42.805,6.029,13.2995,4.60004,2470.61,2021-4-15T14:03:53Z
2021-04-15T12:05:48Z,42.805,6.029,13.2995,4.60003,2470.6,2021-4-15T14:06:56Z
2021-04-15T12:08:51Z,42.805,6.029,13.2988,4.60009,2470.67,2021-4-15T14:09:59Z
2021-04-15T12:11:54Z,42.805,6.029,13.2990,4.60001,2470.637,2021-4-15T14:13:02Z
2021-04-15T12:14:57Z,42.805,6.029,13.2991,4.59999,2470.624,2021-4-15T14:16:06Z
2021-04-15T12:18:00Z,42.805,6.029,13.2996,4.60003,2470.577,2021-4-15T14:19:09Z
2021-04-15T12:21:03Z,42.805,6.029,13.2989,4.59999,2470.624,2021-4-15T14:22:12Z
2021-04-15T12:24:06Z,42.805,6.029,13.2991,4.60003,2470.567,2021-4-15T14:25:15Z
2021-04-15T12:27:09Z,42.805,6.029,13.2996,4.60013,2470.6,2021-4-15T14:28:18Z
2021-04-15T12:30:13Z,42.805,6.029,13.2986,4.60007,2470.577,2021-4-15T14:31:21Z
2021-04-15T12:33:16Z,42.805,6.029,13.2996,4.60011,2470.614,2021-4-15T14:34:24Z
2021-04-15T12:36:19Z,42.805,6.029,13.2985,4.60000,2470.614,2021-4-15T14:37:27Z
2021-04-15T12:39:22Z,42.805,6.029,13.2990,4.60001,2470.591,2021-4-15T14:40:31Z
2021-04-15T12:42:25Z,42.805,6.029,13.2991,4.59998,2470.567,2021-4-15T14:43:34Z
2021-04-15T12:45:28Z,42.805,6.029,13.2990,4.60008,2470.591,2021-4-15T14:46:37Z
2021-04-15T12:48:31Z,42.805,6.029,13.2991,4.60003,2470.591,2021-4-15T14:49:40Z
2021-04-15T12:51:35Z,42.805,6.029,13.2988,4.60000,2470.6,2021-4-15T14:52:43Z
2021-04-15T12:54:38Z,42.805,6.029,13.2991,4.60010,2470.553,2021-4-15T14:55:46Z
2021-04-15T12:57:41Z,42.805,6.029,13.2991,4.60004,2470.544,2021-4-15T14:58:49Z
2021-04-15T13:00:44Z,42.805,6.029,13.2992,4.60004,2470.53,2021-4-15T15:01:53Z
2021-04-15T13:03:47Z,42.805,6.029,13.2991,4.60001,2470.591,2021-4-15T15:04:56Z
2021-04-15T13:06:50Z,42.805,6.029,13.2990,4.59998,2470.553,2021-4-15T15:07:59Z
2021-04-15T13:09:53Z,42.805,6.029,13.2993,4.59998,2470.563,2021-4-15T15:11:02Z
2021-04-15T13:12:56Z,42.805,6.029,13.2993,4.59999,2470.591,2021-4-15T15:14:05Z
2021-04-15T13:16:00Z,42.805,6.029,13.2986,4.60002,2470.553,2021-4-15T15:17:08Z
2021-04-15T13:19:03Z,42.805,6.029,13.2988,4.60000,2470.53,2021-4-15T15:20:11Z
2021-04-15T13:22:06Z,42.805,6.029,13.2988,4.59997,2470.544,2021-4-15T15:23:14Z
2021-04-15T13:25:09Z,42.805,6.029,13.2991,4.59998,2470.52,2021-4-15T15:26:18Z
2021-04-15T13:28:12Z,42.805,6.029,13.2984,4.59999,2470.567,2021-4-15T15:29:21Z
2021-04-15T13:31:15Z,42.805,6.029,13.2988,4.59996,2470.544,2021-4-15T15:32:24Z
2021-04-15T13:34:18Z,42.805,6.029,13.2990,4.60001,2470.53,2021-4-15T15:35:27Z
2021-04-15T13:37:21Z,42.805,6.029,13.2987,4.60002,2470.553,2021-4-15T15:38:30Z
2021-04-15T13:40:25Z,42.805,6.029,13.2990,4.60007,2470.507,2021-4-15T15:41:33Z
2021-04-15T13:43:28Z,42.805,6.029,13.2990,4.60009,2470.52,2021-4-15T15:44:36Z
2021-04-15T13:46:31Z,42.805,6.029,13.2990,4.60004,2470.483,2021-4-15T15:47:39Z
2021-04-15T13:49:34Z,42.805,6.029,13.2990,4.60006,2470.52,2021-4-15T15:50:43Z
2021-04-15T13:52:37Z,42.805,6.029,13.2990,4.60010,2470.507,2021-4-15T15:53:46Z
2021-04-15T13:55:40Z,42.805,6.029,13.2987,4.60003,2470.497,2021-4-15T15:56:49Z
2021-04-15T13:58:43Z,42.805,6.029,13.2988,4.60004,2470.483,2021-4-15T15:59:52Z
2021-04-15T14:01:46Z,42.805,6.029,13.2988,4.59997,2470.53,2021-4-15T16:02:55Z
2021-04-15T14:04:50Z,42.805,6.029,13.2987,4.60003,2470.507,2021-4-15T16:05:58Z
2021-04-15T14:07:53Z,42.805,6.029,13.2985,4.60001,2470.544,2021-4-15T16:09:01Z
2021-04-15T14:10:56Z,42.805,6.029,13.2986,4.60001,2470.483,2021-4-15T16:12:04Z
2021-04-15T14:13:59Z,42.805,6.029,13.2986,4.59999,2470.567,2021-4-15T16:15:08Z
2021-04-15T14:17:02Z,42.805,6.029,13.2991,4.59998,2470.52,2021-4-15T16:18:11Z
2021-04-15T14:20:05Z,42.805,6.029,13.2991,4.60001,2470.637,2021-4-15T16:21:14Z
2021-04-15T14:23:08Z,42.805,6.029,13.2991,4.60003,2470.53,2021-4-15T16:24:17Z
2021-04-15T14:26:11Z,42.805,6.029,13.2985,4.60004,2470.46,2021-4-15T16:27:20Z
2021-04-15T14:29:15Z,42.805,6.029,13.2988,4.59999,2470.497,2021-4-15T16:30:23Z
2021-04-15T14:32:18Z,42.805,6.029,13.2990,4.59999,2470.46,2021-4-15T16:33:26Z
2021-04-15T14:35:21Z,42.805,6.029,13.2987,4.60001,2470.483,2021-4-15T16:36:29Z
2021-04-15T14:38:24Z,42.805,6.029,13.2991,4.60003,2470.507,2021-4-15T16:39:33Z
2021-04-15T14:41:27Z,42.805,6.029,13.2986,4.60003,2470.474,2021-4-15T16:42:36Z
2021-04-15T14:44:30Z,42.805,6.029,13.2991,4.60004,2470.483,2021-4-15T16:45:39Z
2021-04-15T14:47:33Z,42.805,6.029,13.2990,4.60005,2470.483,2021-4-15T16:48:42Z
2021-04-15T14:50:37Z,42.805,6.029,13.2987,4.60002,2470.46,2021-4-15T16:51:45Z
2021-04-15T14:53:40Z,42.805,6.029,13.2991,4.59999,2470.52,2021-4-15T16:54:48Z
2021-04-15T14:56:43Z,42.805,6.029,13.2989,4.60009,2470.52,2021-4-15T16:57:51Z
2021-04-15T14:59:46Z,42.805,6.029,13.2984,4.60001,2470.483,2021-4-15T17:00:55Z
2021-04-15T15:02:49Z,42.805,6.029,13.2987,4.59997,2470.474,2021-4-15T17:03:58Z
2021-04-15T15:05:52Z,42.805,6.029,13.2985,4.59996,2470.497,2021-4-15T17:07:01Z
2021-04-15T15:08:55Z,42.805,6.029,13.2987,4.59998,2470.497,2021-4-15T17:10:04Z
2021-04-15T15:11:58Z,42.805,6.029,13.2986,4.59999,2470.483,2021-4-15T17:13:07Z
2021-04-15T15:15:02Z,42.805,6.029,13.2987,4.59998,2470.507,2021-4-15T17:16:10Z